TimeEDT,TemperatureF,Dew PointF,Humidity,Sea Level PressureIn,VisibilityMPH,Wind Direction,Wind SpeedMPH,Gust SpeedMPH,PrecipitationIn,Events,Conditions,WindDirDegrees,DateUTC
12:53 AM,46.0,33.1,61,29.83,10.0,NW,9.2,19.6,N/A,,Clear,320,2012-10-29 04:53:00
1:53 AM,45.0,34.0,65,29.81,10.0,NW,15.0,23.0,N/A,,Clear,310,2012-10-29 05:53:00
2:53 AM,44.1,33.1,65,29.81,10.0,NW,12.7,20.7,N/A,,Clear,320,2012-10-29 06:53:00
3:53 AM,44.1,33.1,65,29.80,10.0,NNW,15.0,24.2,N/A,,Clear,330,2012-10-29 07:53:00
4:53 AM,44.1,33.1,65,29.80,10.0,NW,16.1,21.9,N/A,,Clear,320,2012-10-29 08:53:00
5:53 AM,44.1,33.1,65,29.81,10.0,NNW,15.0,24.2,N/A,,Clear,330,2012-10-29 09:53:00
6:53 AM,44.1,33.1,65,29.82,10.0,NNW,15.0,25.3,N/A,,Clear,330,2012-10-29 10:53:00
7:53 AM,44.1,32.0,63,29.82,10.0,NW,16.1,23.0,N/A,,Clear,310,2012-10-29 11:53:00
8:53 AM,45.0,32.0,60,29.83,10.0,NW,16.1,27.6,N/A,,Clear,320,2012-10-29 12:53:00
9:53 AM,48.0,32.0,54,29.83,10.0,NW,13.8,19.6,N/A,,Clear,320,2012-10-29 13:53:00
10:53 AM,50.0,32.0,50,29.82,10.0,NNW,18.4,24.2,N/A,,Clear,330,2012-10-29 14:53:00
11:53 AM,51.1,30.9,46,29.83,10.0,NW,21.9,28.8,N/A,,Partly Cloudy,320,2012-10-29 15:53:00
12:53 PM,51.1,30.9,46,29.82,10.0,NW,16.1,36.8,N/A,,Partly Cloudy,320,2012-10-29 16:53:00
1:53 PM,52.0,30.0,43,29.80,10.0,WNW,20.7,38.0,N/A,,Partly Cloudy,300,2012-10-29 17:53:00
2:53 PM,50.0,30.0,46,29.79,10.0,NW,25.3,35.7,N/A,,Mostly Cloudy,320,2012-10-29 18:53:00
3:53 PM,51.1,30.9,46,29.78,10.0,NW,26.5,35.7,N/A,,Mostly Cloudy,320,2012-10-29 19:53:00
4:53 PM,48.9,30.9,50,29.78,10.0,NW,18.4,36.8,N/A,,Overcast,310,2012-10-29 20:53:00
5:53 PM,48.0,30.0,50,29.78,10.0,NW,13.8,31.1,N/A,,Overcast,320,2012-10-29 21:53:00
6:53 PM,48.0,30.0,50,29.78,10.0,WNW,16.1,24.2,N/A,,Overcast,300,2012-10-29 22:53:00
7:53 PM,46.9,30.0,52,29.77,10.0,WNW,13.8,25.3,N/A,,Overcast,290,2012-10-29 23:53:00
8:53 PM,46.9,28.9,50,29.75,10.0,NW,13.8,26.5,N/A,,Scattered Clouds,320,2012-10-30 00:53:00
9:53 PM,46.9,24.1,41,29.74,10.0,NW,13.8,38.0,N/A,,Clear,310,2012-10-30 01:53:00
10:53 PM,46.9,16.0,29,29.72,10.0,NW,21.9,31.1,N/A,,Mostly Cloudy,320,2012-10-30 02:53:00
11:53 PM,46.9,18.0,32,29.70,10.0,NW,18.4,29.9,N/A,,Overcast,310,2012-10-30 03:53:00